,,Stat6,,Stat2,,Stat8,,Stat9,,Stat10,,Wind1,,Wind1,
time,status,PA1M_AVG,status,PR1M_SUM,status,RH1M_AVG,status,SR1M_AVG,status,TA1M_AVG,status,W1dAve1m,status,W1sAve1m,
2005-07-23, 00:00:00,VALID,919.12,VALID,0,VALID,100,VALID,0,VALID,19.6642,VALID,243,VALID,0.64098,
2005-07-23, 00:01:00,VALID,919.127,VALID,0,VALID,100,VALID,-0.0679233,VALID,19.6881,VALID,221,VALID,0.968936,
2005-07-23, 00:02:00,VALID,919.138,VALID,0,VALID,100,VALID,0,VALID,19.6781,VALID,252,VALID,1.2887,
2005-07-23, 00:03:00,VALID,919.147,VALID,0,VALID,100,VALID,0,VALID,19.6776,VALID,248,VALID,0.688227,
2005-07-23, 00:04:00,VALID,919.141,VALID,0,VALID,100,VALID,0,VALID,19.6814,VALID,273,VALID,0.618459,
2005-07-23, 00:05:00,VALID,919.148,VALID,0,VALID,100,VALID,0.0169808,VALID,19.6838,VALID,248,VALID,0.81441,
2005-07-23, 00:06:00,VALID,919.131,VALID,0,VALID,100,VALID,0,VALID,19.6779,VALID,227,VALID,0.84654,
2005-07-23, 00:07:00,VALID,919.118,VALID,0,VALID,100,VALID,0,VALID,19.6938,VALID,230,VALID,0.52326,
2005-07-23, 00:08:00,VALID,919.088,VALID,0,VALID,100,VALID,0.0169808,VALID,19.7037,VALID,235,VALID,0.726367,
2005-07-23, 00:09:00,VALID,919.067,VALID,0,VALID,100,VALID,0.0169808,VALID,19.7194,VALID,275,VALID,0.338728,
2005-07-23, 00:10:00,VALID,919.021,VALID,0,VALID,100,VALID,0.0169808,VALID,19.7417,VALID,291,VALID,0.352307,
2005-07-23, 00:11:00,VALID,919.004,VALID,0,VALID,100,VALID,0.0169808,VALID,19.7646,VALID,292,VALID,0.0642578,
2005-07-23, 00:12:00,VALID,918.961,VALID,0,VALID,100,VALID,0.0169808,VALID,19.7484,VALID,292,VALID,0.209608,
2005-07-23, 00:13:00,VALID,918.953,VALID,0,VALID,100,VALID,0.0169808,VALID,19.7353,VALID,292,VALID,0,
2005-07-23, 00:14:00,VALID,918.915,VALID,0,VALID,100,VALID,0,VALID,19.7293,VALID,292,VALID,0.0657704,
2005-07-23, 00:15:00,VALID,918.884,VALID,0,VALID,100,VALID,0,VALID,19.7417,VALID,292,VALID,0,
2005-07-23, 00:16:00,VALID,918.842,VALID,0,VALID,100,VALID,0.0169808,VALID,19.7387,VALID,292,VALID,0.00053267,
2005-07-23, 00:17:00,VALID,918.804,VALID,0,VALID,100,VALID,0.0339617,VALID,19.7482,VALID,340,VALID,0.483817,
2005-07-23, 00:18:00,VALID,918.787,VALID,0,VALID,100,VALID,0.0169808,VALID,19.7618,VALID,354,VALID,0.0779474,
2005-07-23, 00:19:00,VALID,918.768,VALID,0,VALID,100,VALID,0,VALID,19.7877,VALID,354,VALID,0.171875,
2005-07-23, 00:20:00,VALID,918.775,VALID,0,VALID,100,VALID,0,VALID,19.7936,VALID,354,VALID,0.203804,
2005-07-23, 00:21:00,VALID,918.761,VALID,0,VALID,100,VALID,0,VALID,19.8068,VALID,354,VALID,0.0948401,
2005-07-23, 00:22:00,VALID,918.772,VALID,0,VALID,100,VALID,0,VALID,19.8003,VALID,12,VALID,0.881445,
2005-07-23, 00:23:00,VALID,918.782,VALID,0,VALID,100,VALID,-0.0169808,VALID,19.7812,VALID,4,VALID,0.846037,
2005-07-23, 00:24:00,VALID,918.782,VALID,0,VALID,100,VALID,0,VALID,19.768,VALID,14,VALID,0.706555,
2005-07-23, 00:25:00,VALID,918.801,VALID,0,VALID,100,VALID,0,VALID,19.7678,VALID,26,VALID,0.907315,
2005-07-23, 00:26:00,VALID,918.818,VALID,0,VALID,100,VALID,-0.0169808,VALID,19.7584,VALID,18,VALID,0.38681,
2005-07-23, 00:27:00,VALID,918.832,VALID,0,VALID,100,VALID,0,VALID,19.7646,VALID,15,VALID,0,
2005-07-23, 00:28:00,VALID,918.86,VALID,0,VALID,100,VALID,-0.0169808,VALID,19.7522,VALID,12,VALID,0.328125,
2005-07-23, 00:29:00,VALID,918.872,VALID,0,VALID,100,VALID,0,VALID,19.729,VALID,11,VALID,0.257086,
2005-07-23, 00:30:00,VALID,918.882,VALID,0,VALID,100,VALID,0.0169808,VALID,19.7256,VALID,11,VALID,0.0855824,
2005-07-23, 00:31:00,VALID,918.891,VALID,0,VALID,100,VALID,0,VALID,19.7325,VALID,11,VALID,0.0850694,
2005-07-23, 00:32:00,VALID,918.874,VALID,0,VALID,100,VALID,0.0169808,VALID,19.7382,VALID,11,VALID,0,
2005-07-23, 00:33:00,VALID,918.873,VALID,0,VALID,100,VALID,0.0509425,VALID,19.7517,VALID,11,VALID,0,
2005-07-23, 00:34:00,VALID,918.862,VALID,0,VALID,100,VALID,0.0169808,VALID,19.7328,VALID,11,VALID,0,
2005-07-23, 00:35:00,VALID,918.843,VALID,0,VALID,100,VALID,0,VALID,19.7059,VALID,11,VALID,0,
2005-07-23, 00:36:00,VALID,918.831,VALID,0,VALID,100,VALID,0,VALID,19.7064,VALID,11,VALID,0,
2005-07-23, 00:37:00,VALID,918.796,VALID,0,VALID,100,VALID,0,VALID,19.7166,VALID,11,VALID,0,
2005-07-23, 00:38:00,VALID,918.762,VALID,0,VALID,100,VALID,0,VALID,19.7129,VALID,11,VALID,0.05625,
2005-07-23, 00:39:00,VALID,918.719,VALID,0,VALID,100,VALID,0,VALID,19.7295,VALID,11,VALID,0.489583,
2005-07-23, 00:40:00,VALID,918.695,VALID,0,VALID,100,VALID,0,VALID,19.736,VALID,11,VALID,0.534702,
2005-07-23, 00:41:00,VALID,918.679,VALID,0,VALID,100,VALID,-0.0169808,VALID,19.7293,VALID,11,VALID,0.628906,
2005-07-23, 00:42:00,VALID,918.653,VALID,0,VALID,100,VALID,0.0169808,VALID,19.7231,VALID,24,VALID,0.755078,
2005-07-23, 00:43:00,VALID,918.635,VALID,0,VALID,100,VALID,-0.0169808,VALID,19.7,VALID,22,VALID,0.396587,
2005-07-23, 00:44:00,VALID,918.635,VALID,0,VALID,100,VALID,0,VALID,19.7007,VALID,18,VALID,0.48981,
2005-07-23, 00:45:00,VALID,918.63,VALID,0,VALID,100,VALID,0,VALID,19.6774,VALID,6,VALID,0.67832,
2005-07-23, 00:46:00,VALID,918.628,VALID,0,VALID,100,VALID,0,VALID,19.6555,VALID,352,VALID,0.975497,
2005-07-23, 00:47:00,VALID,918.622,VALID,0,VALID,100,VALID,0.0169808,VALID,19.5778,VALID,314,VALID,1.30759,
2005-07-23, 00:48:00,VALID,918.612,VALID,0,VALID,100,VALID,0,VALID,19.5549,VALID,360,VALID,0.886328,
2005-07-23, 00:49:00,VALID,918.604,VALID,0,VALID,100,VALID,0.0169808,VALID,19.5519,VALID,1,VALID,0.935014,
2005-07-23, 00:50:00,VALID,918.581,VALID,0,VALID,100,VALID,-0.0169808,VALID,19.5323,VALID,15,VALID,1.12926,
2005-07-23, 00:51:00,VALID,918.583,VALID,0,VALID,100,VALID,0.0169808,VALID,19.5263,VALID,17,VALID,0.748224,
2005-07-23, 00:52:00,VALID,918.581,VALID,0,VALID,100,VALID,-0.0169808,VALID,19.5067,VALID,4,VALID,0.486328,
2005-07-23, 00:53:00,VALID,918.547,VALID,0,VALID,100,VALID,0,VALID,19.4866,VALID,12,VALID,0.984197,
2005-07-23, 00:54:00,VALID,918.539,VALID,0,VALID,100,VALID,0,VALID,19.4998,VALID,19,VALID,1.49237,
2005-07-23, 00:55:00,VALID,918.548,VALID,0,VALID,100,VALID,0,VALID,19.5194,VALID,14,VALID,1.35538,
2005-07-23, 00:56:00,VALID,918.572,VALID,0,VALID,100,VALID,0,VALID,19.5067,VALID,352,VALID,0.800426,
2005-07-23, 00:57:00,VALID,918.597,VALID,0,VALID,100,VALID,0,VALID,19.4804,VALID,256,VALID,0.688262,
2005-07-23, 00:58:00,VALID,918.652,VALID,0,VALID,100,VALID,0.0169808,VALID,19.4772,VALID,341,VALID,0.570135,
2005-07-23, 00:59:00,VALID,918.662,VALID,0,VALID,100,VALID,0.0169808,VALID,19.4417,VALID,14,VALID,1.41959,
2005-07-23, 01:00:00,VALID,918.696,VALID,0,VALID,100,VALID,0.0169808,VALID,19.4128,VALID,337,VALID,1.13536,
2005-07-23, 01:01:00,VALID,918.708,VALID,0,VALID,100,VALID,0.0169808,VALID,19.3803,VALID,359,VALID,1.08866,
2005-07-23, 01:02:00,VALID,918.717,VALID,0,VALID,100,VALID,0,VALID,19.3808,VALID,10,VALID,1.14156,
2005-07-23, 01:03:00,VALID,918.736,VALID,0,VALID,100,VALID,0,VALID,19.3935,VALID,16,VALID,0.979802,
2005-07-23, 01:04:00,VALID,918.726,VALID,0,VALID,100,VALID,0,VALID,19.3835,VALID,4,VALID,1.16186,
2005-07-23, 01:05:00,VALID,918.745,VALID,0,VALID,100,VALID,0.0169808,VALID,19.3485,VALID,350,VALID,1.0298,
2005-07-23, 01:06:00,VALID,918.771,VALID,0,VALID,100,VALID,0.0509425,VALID,19.3418,VALID,337,VALID,0.762649,
2005-07-23, 01:07:00,VALID,918.767,VALID,0,VALID,100,VALID,0.0339617,VALID,19.3291,VALID,330,VALID,1.0823,
2005-07-23, 01:08:00,VALID,918.772,VALID,0,VALID,100,VALID,0,VALID,19.3227,VALID,20,VALID,0.93378,
2005-07-23, 01:09:00,VALID,918.763,VALID,0,VALID,100,VALID,0,VALID,19.3256,VALID,4,VALID,0.512649,
2005-07-23, 01:10:00,VALID,918.775,VALID,0,VALID,100,VALID,0,VALID,19.3197,VALID,2,VALID,0.355196,
2005-07-23, 01:11:00,VALID,918.753,VALID,0,VALID,100,VALID,-0.0169808,VALID,19.3294,VALID,360,VALID,0.706364,
2005-07-23, 01:12:00,VALID,918.743,VALID,0,VALID,100,VALID,0.0339617,VALID,19.3517,VALID,11,VALID,0.471946,
2005-07-23, 01:13:00,VALID,918.722,VALID,0,VALID,100,VALID,0,VALID,19.3679,VALID,12,VALID,0.56064,
2005-07-23, 01:14:00,VALID,918.709,VALID,0,VALID,100,VALID,0,VALID,19.3713,VALID,7,VALID,0.289807,
2005-07-23, 01:15:00,VALID,918.715,VALID,0,VALID,100,VALID,0,VALID,19.3684,VALID,353,VALID,0.728659,
2005-07-23, 01:16:00,VALID,918.706,VALID,0,VALID,100,VALID,0.0169808,VALID,19.3517,VALID,354,VALID,0.742932,
2005-07-23, 01:17:00,VALID,918.688,VALID,0,VALID,100,VALID,0.0169808,VALID,19.3681,VALID,12,VALID,1.02017,
2005-07-23, 01:18:00,VALID,918.674,VALID,0,VALID,100,VALID,0,VALID,19.3617,VALID,11,VALID,1.31105,
2005-07-23, 01:19:00,VALID,918.657,VALID,0,VALID,100,VALID,0.0169808,VALID,19.3582,VALID,13,VALID,1.62652,
2005-07-23, 01:20:00,VALID,918.665,VALID,0,VALID,100,VALID,0.0169808,VALID,19.345,VALID,350,VALID,1.10565,
2005-07-23, 01:21:00,VALID,918.649,VALID,0,VALID,100,VALID,0.0509425,VALID,19.3229,VALID,294,VALID,1.08761,
2005-07-23, 01:22:00,VALID,918.633,VALID,0,VALID,100,VALID,0,VALID,19.3164,VALID,289,VALID,0.539993,
2005-07-23, 01:23:00,VALID,918.609,VALID,0,VALID,100,VALID,0.0169808,VALID,19.3229,VALID,311,VALID,0.618712,
2005-07-23, 01:24:00,VALID,918.588,VALID,0,VALID,100,VALID,0.0169808,VALID,19.3192,VALID,345,VALID,0.768895,
2005-07-23, 01:25:00,VALID,918.575,VALID,0,VALID,100,VALID,0.0339617,VALID,19.3197,VALID,348,VALID,0.936166,
2005-07-23, 01:26:00,VALID,918.55,VALID,0,VALID,100,VALID,0.0169808,VALID,19.3122,VALID,2,VALID,0.882626,
2005-07-23, 01:27:00,VALID,918.529,VALID,0,VALID,100,VALID,0.0169808,VALID,19.3289,VALID,6,VALID,0.906977,
2005-07-23, 01:28:00,VALID,918.504,VALID,0,VALID,100,VALID,-0.0509425,VALID,19.3271,VALID,326,VALID,0.830602,
2005-07-23, 01:29:00,VALID,918.493,VALID,0,VALID,100,VALID,-0.0679233,VALID,19.3045,VALID,325,VALID,0.652004,
2005-07-23, 01:30:00,VALID,918.482,VALID,0,VALID,100,VALID,-0.0849042,VALID,19.3174,VALID,339,VALID,0.65516,
2005-07-23, 01:31:00,VALID,918.475,VALID,0,VALID,100,VALID,-0.101885,VALID,19.3236,VALID,358,VALID,0.526563,
2005-07-23, 01:32:00,VALID,918.487,VALID,0,VALID,100,VALID,-0.0849042,VALID,19.3338,VALID,5,VALID,0.579427,
2005-07-23, 01:33:00,VALID,918.491,VALID,0,VALID,100,VALID,-0.0509425,VALID,19.3231,VALID,353,VALID,0.659299,
2005-07-23, 01:34:00,VALID,918.51,VALID,0,VALID,100,VALID,-0.101885,VALID,19.3207,VALID,7,VALID,0.686756,
2005-07-23, 01:35:00,VALID,918.516,VALID,0,VALID,100,VALID,-0.0849042,VALID,19.3363,VALID,28,VALID,0.647879,
2005-07-23, 01:36:00,VALID,918.538,VALID,0,VALID,100,VALID,-0.101885,VALID,19.3492,VALID,16,VALID,0.410742,
2005-07-23, 01:37:00,VALID,918.536,VALID,0,VALID,100,VALID,-0.0169808,VALID,19.3728,VALID,11,VALID,0.390053,
2005-07-23, 01:38:00,VALID,918.552,VALID,0,VALID,100,VALID,-0.0849042,VALID,19.3693,VALID,1,VALID,0.730273,
2005-07-23, 01:39:00,VALID,918.574,VALID,0,VALID,100,VALID,-0.0509425,VALID,19.376,VALID,33,VALID,0.820694,
2005-07-23, 01:40:00,VALID,918.573,VALID,0,VALID,100,VALID,-0.0679233,VALID,19.3654,VALID,14,VALID,0.723758,
2005-07-23, 01:41:00,VALID,918.549,VALID,0,VALID,100,VALID,-0.0339617,VALID,19.3753,VALID,3,VALID,0.535528,
2005-07-23, 01:42:00,VALID,918.549,VALID,0,VALID,100,VALID,-0.101885,VALID,19.3624,VALID,3,VALID,0.721839,
2005-07-23, 01:43:00,VALID,918.522,VALID,0,VALID,100,VALID,0.0169808,VALID,19.3713,VALID,26,VALID,0.789063,
2005-07-23, 01:44:00,VALID,918.494,VALID,0,VALID,100,VALID,0.0339617,VALID,19.3743,VALID,42,VALID,0.524465,
2005-07-23, 01:45:00,VALID,918.477,VALID,0,VALID,100,VALID,0.0509425,VALID,19.3741,VALID,22,VALID,0.63956,
2005-07-23, 01:46:00,VALID,918.459,VALID,0,VALID,100,VALID,0.0679233,VALID,19.3808,VALID,22,VALID,0.415968,
2005-07-23, 01:47:00,VALID,918.424,VALID,0,VALID,100,VALID,0.0169808,VALID,19.3805,VALID,22,VALID,0.251906,
2005-07-23, 01:48:00,VALID,918.407,VALID,0,VALID,100,VALID,0.0169808,VALID,19.3773,VALID,20,VALID,0.579799,
2005-07-23, 01:49:00,VALID,918.386,VALID,0,VALID,100,VALID,0,VALID,19.3644,VALID,13,VALID,0.200462,
2005-07-23, 01:50:00,VALID,918.375,VALID,0,VALID,100,VALID,0.0509425,VALID,19.3612,VALID,13,VALID,0.452257,
2005-07-23, 01:51:00,VALID,918.346,VALID,0,VALID,100,VALID,0.0169808,VALID,19.355,VALID,13,VALID,0.467105,
2005-07-23, 01:52:00,VALID,918.346,VALID,0,VALID,100,VALID,0.0339617,VALID,19.3445,VALID,13,VALID,0.201265,
2005-07-23, 01:53:00,VALID,918.322,VALID,0,VALID,100,VALID,0.0169808,VALID,19.3416,VALID,13,VALID,0.123047,
2005-07-23, 01:54:00,VALID,918.302,VALID,0,VALID,100,VALID,0.0169808,VALID,19.3552,VALID,13,VALID,0.134718,
2005-07-23, 01:55:00,VALID,918.283,VALID,0,VALID,100,VALID,0.0509425,VALID,19.3289,VALID,13,VALID,0.00213068,
2005-07-23, 01:56:00,VALID,918.25,VALID,0,VALID,100,VALID,0.0339617,VALID,19.3323,VALID,13,VALID,0,
2005-07-23, 01:57:00,VALID,918.218,VALID,0,VALID,100,VALID,0.0339617,VALID,19.3314,VALID,13,VALID,0.00590701,
2005-07-23, 01:58:00,VALID,918.189,VALID,0,VALID,100,VALID,0.0509425,VALID,19.3448,VALID,13,VALID,0.101199,
2005-07-23, 01:59:00,VALID,918.16,VALID,0,VALID,100,VALID,0.0169808,VALID,19.3547,VALID,13,VALID,0.00599564,
2005-07-23, 02:00:00,VALID,918.145,VALID,0,VALID,100,VALID,0.0169808,VALID,19.3679,VALID,13,VALID,0.210747,
2005-07-23, 02:01:00,VALID,918.121,VALID,0,VALID,100,VALID,0,VALID,19.3445,VALID,13,VALID,0.350818,
2005-07-23, 02:02:00,VALID,918.116,VALID,0,VALID,100,VALID,0.0509425,VALID,19.3609,VALID,13,VALID,0.385938,
2005-07-23, 02:03:00,VALID,918.101,VALID,0,VALID,100,VALID,0,VALID,19.3416,VALID,13,VALID,0.303163,
2005-07-23, 02:04:00,VALID,918.086,VALID,0,VALID,100,VALID,0.0169808,VALID,19.3483,VALID,13,VALID,0.220238,
2005-07-23, 02:05:00,VALID,918.064,VALID,0,VALID,100,VALID,0.0339617,VALID,19.3413,VALID,13,VALID,0.382612,
2005-07-23, 02:06:00,VALID,918.035,VALID,0,VALID,100,VALID,0.0339617,VALID,19.3416,VALID,13,VALID,0.450707,
2005-07-23, 02:07:00,VALID,918.015,VALID,0,VALID,100,VALID,0,VALID,19.3517,VALID,13,VALID,0.459821,
2005-07-23, 02:08:00,VALID,918.007,VALID,0,VALID,100,VALID,0,VALID,19.3522,VALID,13,VALID,0.28924,
2005-07-23, 02:09:00,VALID,918.005,VALID,0,VALID,100,VALID,0.0169808,VALID,19.3127,VALID,13,VALID,0.234193,
2005-07-23, 02:10:00,VALID,918.006,VALID,0,VALID,100,VALID,0.0169808,VALID,19.3261,VALID,13,VALID,0.0981105,
2005-07-23, 02:11:00,VALID,918.006,VALID,0,VALID,100,VALID,0,VALID,19.313,VALID,13,VALID,0.414583,
2005-07-23, 02:12:00,VALID,917.994,VALID,0,VALID,100,VALID,0.0169808,VALID,19.3035,VALID,13,VALID,0.644618,
2005-07-23, 02:13:00,VALID,918.008,VALID,0,VALID,100,VALID,0,VALID,19.2971,VALID,30,VALID,0.757241,
2005-07-23, 02:14:00,VALID,918.006,VALID,0,VALID,100,VALID,0.0339617,VALID,19.2839,VALID,37,VALID,0.79581,
2005-07-23, 02:15:00,VALID,918.002,VALID,0,VALID,100,VALID,0,VALID,19.2613,VALID,27,VALID,0.735677,
2005-07-23, 02:16:00,VALID,917.99,VALID,0,VALID,100,VALID,0.0339617,VALID,19.2581,VALID,23,VALID,0.83724,
2005-07-23, 02:17:00,VALID,917.982,VALID,0,VALID,100,VALID,0.0169808,VALID,19.2486,VALID,21,VALID,0.572856,
2005-07-23, 02:18:00,VALID,917.97,VALID,0,VALID,100,VALID,0,VALID,19.2486,VALID,21,VALID,0.73125,
2005-07-23, 02:19:00,VALID,917.952,VALID,0,VALID,100,VALID,0.0169808,VALID,19.2352,VALID,19,VALID,0.907703,
2005-07-23, 02:20:00,VALID,917.934,VALID,0,VALID,100,VALID,0.0169808,VALID,19.2551,VALID,14,VALID,0.815341,
2005-07-23, 02:21:00,VALID,917.932,VALID,0,VALID,100,VALID,0.0339617,VALID,19.2549,VALID,11,VALID,0.598895,
2005-07-23, 02:22:00,VALID,917.933,VALID,0,VALID,100,VALID,0.0169808,VALID,19.2387,VALID,10,VALID,0.838542,
2005-07-23, 02:23:00,VALID,917.912,VALID,0,VALID,100,VALID,0.0169808,VALID,19.2553,VALID,10,VALID,0.71503,
2005-07-23, 02:24:00,VALID,917.906,VALID,0,VALID,100,VALID,0,VALID,19.239,VALID,10,VALID,0.812128,
2005-07-23, 02:25:00,VALID,917.899,VALID,0,VALID,100,VALID,0,VALID,19.2357,VALID,10,VALID,0.799538,
2005-07-23, 02:26:00,VALID,917.904,VALID,0,VALID,100,VALID,0.0169808,VALID,19.2221,VALID,2,VALID,0.764695,
2005-07-23, 02:27:00,VALID,917.894,VALID,0,VALID,100,VALID,0.0169808,VALID,19.2186,VALID,8,VALID,1.01635,
2005-07-23, 02:28:00,VALID,917.9,VALID,0,VALID,100,VALID,0.0509425,VALID,19.2193,VALID,13,VALID,1.02604,
2005-07-23, 02:29:00,VALID,917.894,VALID,0,VALID,100,VALID,0.0169808,VALID,19.2193,VALID,11,VALID,1.06641,
2005-07-23, 02:30:00,VALID,917.878,VALID,0,VALID,100,VALID,0,VALID,19.2094,VALID,11,VALID,1.31659,
2005-07-23, 02:31:00,VALID,917.854,VALID,0,VALID,100,VALID,0.0339617,VALID,19.2131,VALID,11,VALID,1.27653,
2005-07-23, 02:32:00,VALID,917.82,VALID,0,VALID,100,VALID,0,VALID,19.2059,VALID,8,VALID,1.40156,
2005-07-23, 02:33:00,VALID,917.794,VALID,0,VALID,100,VALID,0,VALID,19.2196,VALID,3,VALID,1.11115,
2005-07-23, 02:34:00,VALID,917.753,VALID,0,VALID,100,VALID,0,VALID,19.2032,VALID,359,VALID,0.990007,
2005-07-23, 02:35:00,VALID,917.721,VALID,0,VALID,100,VALID,0.0339617,VALID,19.2094,VALID,351,VALID,0.913672,
2005-07-23, 02:36:00,VALID,917.688,VALID,0,VALID,100,VALID,0,VALID,19.2097,VALID,350,VALID,0.661458,
2005-07-23, 02:37:00,VALID,917.667,VALID,0,VALID,100,VALID,0,VALID,19.2059,VALID,346,VALID,0.881392,
2005-07-23, 02:38:00,VALID,917.643,VALID,0,VALID,100,VALID,0,VALID,19.2099,VALID,350,VALID,0.625372,
2005-07-23, 02:39:00,VALID,917.61,VALID,0,VALID,100,VALID,0,VALID,19.2064,VALID,350,VALID,0.910342,
2005-07-23, 02:40:00,VALID,917.586,VALID,0,VALID,100,VALID,0.0169808,VALID,19.2004,VALID,345,VALID,0.916371,
2005-07-23, 02:41:00,VALID,917.539,VALID,0,VALID,100,VALID,0,VALID,19.2037,VALID,345,VALID,0.924893,
2005-07-23, 02:42:00,VALID,917.503,VALID,0,VALID,100,VALID,0.0339617,VALID,19.187,VALID,341,VALID,1.10584,
2005-07-23, 02:43:00,VALID,917.472,VALID,0,VALID,100,VALID,-0.0509425,VALID,19.1818,VALID,353,VALID,0.815104,
2005-07-23, 02:44:00,VALID,917.435,VALID,0,VALID,100,VALID,-0.0849042,VALID,19.1885,VALID,358,VALID,1.03961,
2005-07-23, 02:45:00,VALID,917.393,VALID,0,VALID,100,VALID,-0.101885,VALID,19.1728,VALID,344,VALID,0.810138,
2005-07-23, 02:46:00,VALID,917.36,VALID,0,VALID,100,VALID,-0.0849042,VALID,19.1887,VALID,313,VALID,0.754542,
2005-07-23, 02:47:00,VALID,917.34,VALID,0,VALID,100,VALID,-0.0849042,VALID,19.1823,VALID,311,VALID,0.625953,
2005-07-23, 02:48:00,VALID,917.325,VALID,0,VALID,100,VALID,-0.101885,VALID,19.1927,VALID,313,VALID,0.734197,
2005-07-23, 02:49:00,VALID,917.293,VALID,0,VALID,100,VALID,-0.101885,VALID,19.1862,VALID,322,VALID,0.349144,
2005-07-23, 02:50:00,VALID,917.263,VALID,0,VALID,100,VALID,-0.101885,VALID,19.1726,VALID,330,VALID,0.31871,
2005-07-23, 02:51:00,VALID,917.244,VALID,0,VALID,100,VALID,-0.101885,VALID,19.1825,VALID,345,VALID,0.45206,
2005-07-23, 02:52:00,VALID,917.22,VALID,0,VALID,100,VALID,-0.101885,VALID,19.18,VALID,325,VALID,0.54581,
2005-07-23, 02:53:00,VALID,917.192,VALID,0,VALID,100,VALID,-0.0849042,VALID,19.1567,VALID,318,VALID,0.821766,
2005-07-23, 02:54:01,VALID,917.18,VALID,0,VALID,100,VALID,-0.101885,VALID,19.1468,VALID,304,VALID,0.626603,
2005-07-23, 02:55:00,VALID,917.17,VALID,0,VALID,100,VALID,-0.118866,VALID,19.1698,VALID,300,VALID,0.281994,
2005-07-23, 02:56:00,VALID,917.183,VALID,0,VALID,100,VALID,-0.0679233,VALID,19.1768,VALID,300,VALID,0.0259046,
2005-07-23, 02:57:00,VALID,917.185,VALID,0,VALID,100,VALID,-0.101885,VALID,19.1828,VALID,300,VALID,0.0600818,
2005-07-23, 02:58:00,VALID,917.188,VALID,0,VALID,100,VALID,0.0339617,VALID,19.1649,VALID,300,VALID,0.172256,
2005-07-23, 02:59:00,VALID,917.199,VALID,0,VALID,100,VALID,0.0169808,VALID,19.1682,VALID,348,VALID,0.575036,
2005-07-23, 03:00:00,VALID,917.226,VALID,0,VALID,100,VALID,0.0339617,VALID,19.1582,VALID,335,VALID,0.413517,
2005-07-23, 03:01:00,VALID,917.238,VALID,0,VALID,100,VALID,0.0339617,VALID,19.1585,VALID,326,VALID,0.4641,
2005-07-23, 03:02:00,VALID,917.261,VALID,0,VALID,100,VALID,0,VALID,19.152,VALID,19,VALID,0.820499,
2005-07-23, 03:03:01,VALID,917.283,VALID,0,VALID,100,VALID,0.0169808,VALID,19.1513,VALID,37,VALID,0.496466,
2005-07-23, 03:04:00,VALID,917.307,VALID,0,VALID,100,VALID,0.0339617,VALID,19.158,VALID,94,VALID,0.886052,
2005-07-23, 03:05:00,VALID,917.341,VALID,0,VALID,100,VALID,0.0339617,VALID,19.1555,VALID,109,VALID,0.749653,
2005-07-23, 03:06:01,VALID,917.355,VALID,0,VALID,100,VALID,0.0339617,VALID,19.1356,VALID,139,VALID,0.952398,
2005-07-23, 03:07:00,VALID,917.405,VALID,0,VALID,100,VALID,0.0679233,VALID,19.1329,VALID,135,VALID,1.01486,
2005-07-23, 03:08:00,VALID,917.43,VALID,0,VALID,100,VALID,0.0509425,VALID,19.1326,VALID,149,VALID,1.03462,
2005-07-23, 03:09:00,VALID,917.459,VALID,0,VALID,100,VALID,0.0509425,VALID,19.1423,VALID,143,VALID,0.942361,
2005-07-23, 03:10:00,VALID,917.481,VALID,0,VALID,100,VALID,0.0339617,VALID,19.1294,VALID,148,VALID,0.662972,
2005-07-23, 03:11:00,VALID,917.479,VALID,0,VALID,100,VALID,0.0509425,VALID,19.1165,VALID,156,VALID,0.847098,
2005-07-23, 03:12:00,VALID,917.503,VALID,0,VALID,100,VALID,0.0339617,VALID,19.1036,VALID,135,VALID,0.873094,
2005-07-23, 03:13:00,VALID,917.482,VALID,0,VALID,100,VALID,0.0169808,VALID,19.12,VALID,145,VALID,0.926758,
2005-07-23, 03:14:01,VALID,917.462,VALID,0,VALID,100,VALID,0.0509425,VALID,19.123,VALID,143,VALID,0.658454,
2005-07-23, 03:15:00,VALID,917.446,VALID,0,VALID,100,VALID,0.0339617,VALID,19.1163,VALID,151,VALID,0.871366,
2005-07-23, 03:16:00,VALID,917.438,VALID,0,VALID,100,VALID,0.0679233,VALID,19.1257,VALID,159,VALID,0.602289,
2005-07-23, 03:17:00,VALID,917.445,VALID,0,VALID,100,VALID,0.0339617,VALID,19.1329,VALID,154,VALID,0.544097,
2005-07-23, 03:18:01,VALID,917.462,VALID,0,VALID,100,VALID,0.0339617,VALID,19.1329,VALID,152,VALID,0.341016,
2005-07-23, 03:19:01,VALID,917.46,VALID,0,VALID,100,VALID,0.0679233,VALID,19.113,VALID,129,VALID,0.557106,
2005-07-23, 03:20:00,VALID,917.466,VALID,0,VALID,100,VALID,0.0509425,VALID,19.1195,VALID,97,VALID,0.747768,
2005-07-23, 03:21:01,VALID,917.462,VALID,0,VALID,100,VALID,0.0509425,VALID,19.1125,VALID,53,VALID,1,
2005-07-23, 03:22:01,VALID,917.45,VALID,0,VALID,100,VALID,0.0169808,VALID,19.1096,VALID,51,VALID,1.00651,
2005-07-23, 03:23:00,VALID,917.413,VALID,0,VALID,100,VALID,0.0339617,VALID,19.1195,VALID,56,VALID,1.01254,
2005-07-23, 03:24:00,VALID,917.39,VALID,0,VALID,100,VALID,0.0339617,VALID,19.113,VALID,57,VALID,1.07231,
2005-07-23, 03:25:00,VALID,917.352,VALID,0,VALID,100,VALID,0.0509425,VALID,19.1003,VALID,57,VALID,0.743945,
2005-07-23, 03:26:01,VALID,917.304,VALID,0,VALID,100,VALID,0.0509425,VALID,19.0939,VALID,50,VALID,0.637847,
2005-07-23, 03:27:00,VALID,917.271,VALID,0,VALID,100,VALID,0,VALID,19.0904,VALID,47,VALID,0.625381,
2005-07-23, 03:28:00,VALID,917.262,VALID,0,VALID,100,VALID,-0.0169808,VALID,19.0916,VALID,47,VALID,0.360156,
2005-07-23, 03:29:00,VALID,917.248,VALID,0,VALID,100,VALID,-0.0679233,VALID,19.0953,VALID,47,VALID,0.425249,
2005-07-23, 03:30:00,VALID,917.246,VALID,0,VALID,100,VALID,-0.101885,VALID,19.0886,VALID,47,VALID,0.614062,
2005-07-23, 03:31:00,VALID,917.259,VALID,0,VALID,100,VALID,-0.0509425,VALID,19.0886,VALID,47,VALID,0.798077,
2005-07-23, 03:32:00,VALID,917.264,VALID,0,VALID,100,VALID,-0.0339617,VALID,19.0953,VALID,47,VALID,0.86814,
2005-07-23, 03:33:00,VALID,917.261,VALID,0,VALID,100,VALID,-0.101885,VALID,19.0988,VALID,43,VALID,1.07257,
2005-07-23, 03:34:00,VALID,917.244,VALID,0,VALID,100,VALID,-0.0509425,VALID,19.0819,VALID,36,VALID,1.30369,
2005-07-23, 03:35:01,VALID,917.231,VALID,0,VALID,100,VALID,-0.0679233,VALID,19.0824,VALID,40,VALID,1.4548,
2005-07-23, 03:36:00,VALID,917.236,VALID,0,VALID,100,VALID,-0.0509425,VALID,19.0722,VALID,38,VALID,1.34175,
2005-07-23, 03:37:00,VALID,917.246,VALID,0,VALID,100,VALID,-0.0339617,VALID,19.0792,VALID,42,VALID,1.03285,
2005-07-23, 03:38:00,VALID,917.261,VALID,0,VALID,100,VALID,-0.0509425,VALID,19.0725,VALID,44,VALID,0.663699,
2005-07-23, 03:39:00,VALID,917.274,VALID,0,VALID,100,VALID,-0.0679233,VALID,19.076,VALID,47,VALID,0.557478,
2005-07-23, 03:40:00,VALID,917.305,VALID,0,VALID,100,VALID,-0.0509425,VALID,19.0693,VALID,64,VALID,0.47093,
2005-07-23, 03:41:00,VALID,917.309,VALID,0,VALID,100,VALID,-0.0679233,VALID,19.0762,VALID,68,VALID,0.478981,
2005-07-23, 03:42:00,VALID,917.306,VALID,0,VALID,100,VALID,-0.0679233,VALID,19.073,VALID,70,VALID,0.421684,